This is the latest recevied weather packets stored in our database for station/object KD8JAM. If no packets are shown the sender has not sent any weather packets the latest 10 day(s).
| Time | Temp. | Humidity | Pressure | Rain* | Wind** | Luminosity | Snow |
|---|---|---|---|---|---|---|---|
| 1777916265 | 10.56° C | 82% | 993.2 hPa | 0 mm | - | 759 W/m² | - |
| 1777915962 | 10° C | 82% | 993.2 hPa | 0 mm | - | 749 W/m² | - |
| 1777915659 | 10° C | 84% | 993.2 hPa | 0 mm | - | 431 W/m² | - |
| 1777915356 | 10° C | 84% | 993.1 hPa | 0 mm | - | 393 W/m² | - |
| 1777915052 | 9.44° C | 85% | 993.1 hPa | 0 mm | - | 402 W/m² | - |
| 1777914749 | 9.44° C | 85% | 993.1 hPa | 0 mm | - | 304 W/m² | - |
| 1777914446 | 9.44° C | 85% | 992.9 hPa | 0 mm | - | 267 W/m² | - |
| 1777914143 | 10° C | 84% | 992.9 hPa | 0 mm | - | 240 W/m² | - |
| 1777913839 | 11.11° C | 82% | 992.8 hPa | 0 mm | - | 232 W/m² | - |
| 1777913535 | 11.11° C | 83% | 992.8 hPa | 0 mm | - | 594 W/m² | - |
| 1777913232 | 10.56° C | 85% | 992.7 hPa | 0 mm | - | 798 W/m² | - |
| 1777912930 | 10.56° C | 85% | 992.5 hPa | 0 mm | - | 704 W/m² | - |
| 1777912625 | 10.56° C | 85% | 992.6 hPa | 0 mm | - | 494 W/m² | - |
| 1777912321 | 10.56° C | 85% | 992.5 hPa | 0 mm | - | 570 W/m² | - |
| 1777912017 | 10.56° C | 87% | 992.4 hPa | 0 mm | - | 870 W/m² | - |
| 1777911713 | 10° C | 88% | 992.5 hPa | 0 mm | - | 819 W/m² | - |
| 1777911410 | 10° C | 90% | 992.1 hPa | 0 mm | - | 859 W/m² | - |
| 1777911108 | 10° C | 92% | 992.1 hPa | 0 mm | - | 707 W/m² | - |
| 1777910805 | 9.44° C | 94% | 991.9 hPa | 0 mm | - | 825 W/m² | - |
| 1777910502 | 8.89° C | 96% | 992 hPa | 0 mm | - | 821 W/m² | - |
| 1777910198 | 8.89° C | 98% | 992.3 hPa | 0 mm | - | 567 W/m² | - |
| 1777909895 | 8.33° C | 99% | 992 hPa | 0 mm | - | 874 W/m² | - |
| 1777909592 | 7.78° C | 99% | 992.2 hPa | 0 mm | - | 844 W/m² | - |
| 1777909289 | 7.22° C | 99% | 992 hPa | 0 mm | - | 848 W/m² | - |
| 1777908987 | 6.67° C | 99% | 992.1 hPa | 0 mm | - | 150 W/m² | - |
* Rain latest hour (hover to see other rain measurements)
** Current wind speed in m/s (hover to see current wind gust speed)